• în România
  • Lista ţărilor
  • Pe 7 zile
  • Temperatura apei
  • Hartă satelitară
  • Meteo pe hartă
  • Widget-uri
  • user-avatar
    Intrare

    Meteo pe oră la Bregenz

    Astăzi, 23 Iunie, Vineri

    Timp Temperatura Precipitaţii Vânt Presiune Umiditate
    00:00 +14°C° 0,5 mm 2 m/s 649 mmHg 87%
    01:00 +14°C° 0,5 mm 2 m/s 649 mmHg 87%
    02:00 +14°C° 0,3 mm 2 m/s 649 mmHg 86%
    03:00 +14°C° 0,3 mm 2 m/s 649 mmHg 85%
    04:00 +13°C° 0,3 mm 2 m/s 649 mmHg 84%
    05:00 +15°C° 0,3 mm 2 m/s 649 mmHg 83%
    06:00 +16°C° 0,3 mm 2 m/s 649 mmHg 81%
    07:00 +17°C° 0,3 mm 2 m/s 650 mmHg 79%
    08:00 +19°C° 0,1 mm 3 m/s 651 mmHg 69%
    09:00 +21°C° 0,1 mm 3 m/s 651 mmHg 58%
    10:00 +24°C° 0,1 mm 3 m/s 652 mmHg 48%
    11:00 +25°C° 0,1 mm 4 m/s 652 mmHg 48%
    12:00 +25°C° 0,1 mm 4 m/s 652 mmHg 48%
    13:00 +26°C° 0,1 mm 4 m/s 652 mmHg 47%
    14:00 +25°C° 0,5 mm 4 m/s 652 mmHg 55%
    15:00 +24°C° 0,5 mm 3 m/s 651 mmHg 62%
    16:00 +22°C° 0,5 mm 3 m/s 651 mmHg 70%
    17:00 +21°C° 0,7 mm 2 m/s 651 mmHg 76%
    18:00 +20°C° 0,7 mm 2 m/s 651 mmHg 82%
    19:00 +18°C° 0,7 mm 2 m/s 651 mmHg 88%
    20:00 +18°C° 0,2 mm 1 m/s 650 mmHg 91%
    21:00 +15°C° 0,2 mm 1 m/s 650 mmHg 94%
    22:00 +13°C° 0,2 mm 1 m/s 650 mmHg 97%
    23:00 +12°C° 0 mm 1 m/s 650 mmHg 97%

    Mâine, 24 Iunie, Sâmbătă

    Timp Temperatura Precipitaţii Vânt Presiune Umiditate
    00:00 +12°C° 0 mm 1 m/s 650 mmHg 97%
    01:00 +11°C° 0 mm 1 m/s 649 mmHg 97%
    02:00 +11°C° 0 mm 1 m/s 649 mmHg 97%
    03:00 +11°C° 0 mm 1 m/s 649 mmHg 96%
    04:00 +11°C° 0 mm 1 m/s 649 mmHg 96%
    05:00 +13°C° 0 mm 1 m/s 649 mmHg 92%
    06:00 +15°C° 0 mm 1 m/s 650 mmHg 88%
    07:00 +18°C° 0 mm 1 m/s 650 mmHg 83%
    08:00 +19°C° 0 mm 1 m/s 650 mmHg 77%
    09:00 +20°C° 0 mm 1 m/s 651 mmHg 70%
    10:00 +21°C° 0 mm 2 m/s 651 mmHg 63%
    11:00 +21°C° 0 mm 2 m/s 651 mmHg 62%
    12:00 +23°C° 0 mm 2 m/s 651 mmHg 60%
    13:00 +22°C° 0 mm 3 m/s 650 mmHg 59%
    14:00 +22°C° 0,4 mm 3 m/s 650 mmHg 64%
    15:00 +21°C° 0,4 mm 3 m/s 650 mmHg 70%
    16:00 +20°C° 0,4 mm 3 m/s 649 mmHg 76%
    17:00 +19°C° 1,2 mm 3 m/s 649 mmHg 80%
    18:00 +18°C° 1,2 mm 2 m/s 649 mmHg 84%
    19:00 +17°C° 1,2 mm 2 m/s 649 mmHg 88%
    20:00 +16°C° 0,7 mm 1 m/s 649 mmHg 91%
    21:00 +14°C° 0,7 mm 1 m/s 649 mmHg 94%
    22:00 +13°C° 0,7 mm 1 m/s 648 mmHg 97%
    23:00 +12°C° 0,4 mm 1 m/s 648 mmHg 97%

    Poimâine, 25 Iunie, Duminică

    Timp Temperatura Precipitaţii Vânt Presiune Umiditate
    00:00 +12°C° 0,4 mm 1 m/s 648 mmHg 97%
    01:00 +11°C° 0,4 mm 1 m/s 647 mmHg 97%
    02:00 +11°C° 0,3 mm 1 m/s 647 mmHg 96%
    03:00 +11°C° 0,3 mm 1 m/s 647 mmHg 96%
    04:00 +11°C° 0,3 mm 1 m/s 647 mmHg 96%
    05:00 +12°C° 0,1 mm 1 m/s 647 mmHg 94%
    06:00 +13°C° 0,1 mm 2 m/s 648 mmHg 93%
    07:00 +14°C° 0,1 mm 2 m/s 648 mmHg 92%
    08:00 +15°C° 0,1 mm 2 m/s 648 mmHg 87%
    09:00 +16°C° 0,1 mm 2 m/s 648 mmHg 82%
    10:00 +16°C° 0,1 mm 2 m/s 648 mmHg 77%
    11:00 +17°C° 0,1 mm 2 m/s 649 mmHg 72%
    12:00 +18°C° 0,1 mm 3 m/s 649 mmHg 67%
    13:00 +19°C° 0,1 mm 3 m/s 649 mmHg 62%
    14:00 +19°C° 0,1 mm 3 m/s 649 mmHg 62%
    15:00 +19°C° 0,1 mm 3 m/s 649 mmHg 63%
    16:00 +19°C° 0,1 mm 3 m/s 649 mmHg 63%
    17:00 +18°C° 0 mm 3 m/s 649 mmHg 69%
    18:00 +17°C° 0 mm 2 m/s 649 mmHg 75%
    19:00 +16°C° 0 mm 2 m/s 649 mmHg 80%
    20:00 +14°C° 0 mm 1 m/s 648 mmHg 86%
    21:00 +11°C° 0 mm 1 m/s 648 mmHg 91%
    22:00 +9°C° 0 mm 1 m/s 648 mmHg 96%
    23:00 +9°C° 0 mm 1 m/s 647 mmHg 96%

    26 Iunie, Luni

    Timp Temperatura Precipitaţii Vânt Presiune Umiditate
    00:00 +7°C° 0 mm 0 m/s 647 mmHg 96%
    01:00 +7°C° 0 mm 0 m/s 647 mmHg 96%
    02:00 +6°C° 0 mm 0 m/s 646 mmHg 96%
    03:00 +6°C° 0 mm 0 m/s 646 mmHg 96%
    04:00 +5°C° 0 mm 0 m/s 646 mmHg 96%
    05:00 +8°C° 0 mm 0 m/s 646 mmHg 91%
    06:00 +11°C° 0 mm 0 m/s 647 mmHg 85%
    07:00 +15°C° 0 mm 1 m/s 648 mmHg 80%
    08:00 +18°C° 0 mm 1 m/s 648 mmHg 72%
    09:00 +20°C° 0 mm 1 m/s 649 mmHg 63%
    10:00 +22°C° 0 mm 1 m/s 649 mmHg 55%
    11:00 +23°C° 0 mm 2 m/s 649 mmHg 52%
    12:00 +24°C° 0 mm 2 m/s 649 mmHg 50%
    13:00 +24°C° 0 mm 2 m/s 649 mmHg 48%
    14:00 +24°C° 0,3 mm 2 m/s 649 mmHg 53%
    15:00 +24°C° 0,3 mm 2 m/s 648 mmHg 58%
    16:00 +23°C° 0,3 mm 2 m/s 648 mmHg 63%
    17:00 +21°C° 0,5 mm 2 m/s 648 mmHg 70%
    18:00 +21°C° 0,5 mm 1 m/s 647 mmHg 78%
    19:00 +20°C° 0,5 mm 1 m/s 647 mmHg 85%
    20:00 +18°C° 0,4 mm 1 m/s 646 mmHg 88%
    21:00 +16°C° 0,4 mm 1 m/s 646 mmHg 91%
    22:00 +14°C° 0,4 mm 1 m/s 646 mmHg 93%
    23:00 +14°C° 1,2 mm 2 m/s 645 mmHg 94%

    27 Iunie, Marţi

    Timp Temperatura Precipitaţii Vânt Presiune Umiditate
    00:00 +14°C° 1,2 mm 2 m/s 645 mmHg 94%
    01:00 +14°C° 1,2 mm 2 m/s 645 mmHg 95%
    02:00 +13°C° 0,7 mm 2 m/s 645 mmHg 95%
    03:00 +13°C° 0,7 mm 2 m/s 644 mmHg 95%
    04:00 +12°C° 0,7 mm 2 m/s 644 mmHg 95%
    05:00 +13°C° 0,2 mm 2 m/s 644 mmHg 93%
    06:00 +14°C° 0,2 mm 2 m/s 645 mmHg 92%
    07:00 +15°C° 0,2 mm 2 m/s 645 mmHg 91%
    08:00 +17°C° 0,2 mm 2 m/s 645 mmHg 81%
    09:00 +19°C° 0,2 mm 2 m/s 646 mmHg 72%
    10:00 +21°C° 0,2 mm 2 m/s 646 mmHg 63%
    11:00 +23°C° 0,5 mm 2 m/s 646 mmHg 61%
    12:00 +23°C° 0,5 mm 2 m/s 646 mmHg 60%
    13:00 +24°C° 0,5 mm 2 m/s 646 mmHg 58%
    14:00 +23°C° 0,8 mm 2 m/s 646 mmHg 62%
    15:00 +23°C° 0,8 mm 2 m/s 646 mmHg 67%
    16:00 +21°C° 0,8 mm 2 m/s 645 mmHg 71%
    17:00 +20°C° 1,6 mm 2 m/s 645 mmHg 78%
    18:00 +18°C° 1,6 mm 2 m/s 645 mmHg 84%
    19:00 +18°C° 1,6 mm 1 m/s 645 mmHg 91%
    20:00 +16°C° 2,2 mm 1 m/s 644 mmHg 92%
    21:00 +15°C° 2,2 mm 2 m/s 644 mmHg 94%
    22:00 +14°C° 2,2 mm 2 m/s 644 mmHg 95%
    23:00 +14°C° 1 mm 2 m/s 644 mmHg 95%

    28 Iunie, Miercuri

    Timp Temperatura Precipitaţii Vânt Presiune Umiditate
    00:00 +14°C° 1 mm 2 m/s 644 mmHg 95%
    01:00 +13°C° 1 mm 2 m/s 643 mmHg 95%
    02:00 +13°C° 0,7 mm 2 m/s 643 mmHg 94%
    03:00 +13°C° 0,7 mm 2 m/s 643 mmHg 94%
    04:00 +13°C° 0,7 mm 2 m/s 642 mmHg 94%
    05:00 +13°C° 0,6 mm 2 m/s 642 mmHg 93%
    06:00 +14°C° 0,6 mm 2 m/s 642 mmHg 93%
    07:00 +15°C° 0,6 mm 2 m/s 642 mmHg 92%
    08:00 +16°C° 0,4 mm 2 m/s 642 mmHg 86%
    09:00 +17°C° 0,4 mm 2 m/s 642 mmHg 80%
    10:00 +19°C° 0,4 mm 2 m/s 642 mmHg 74%
    11:00 +20°C° 0,3 mm 2 m/s 642 mmHg 68%
    12:00 +21°C° 0,3 mm 2 m/s 642 mmHg 63%
    13:00 +22°C° 0,3 mm 3 m/s 641 mmHg 57%
    14:00 +21°C° 1 mm 2 m/s 641 mmHg 65%
    15:00 +21°C° 1 mm 2 m/s 640 mmHg 73%
    16:00 +20°C° 1 mm 2 m/s 639 mmHg 80%
    17:00 +18°C° 1,9 mm 3 m/s 639 mmHg 83%
    18:00 +17°C° 1,9 mm 3 m/s 638 mmHg 86%
    19:00 +16°C° 1,9 mm 3 m/s 638 mmHg 89%
    20:00 +13°C° 2,1 mm 3 m/s 637 mmHg 92%
    21:00 +12°C° 2,1 mm 3 m/s 637 mmHg 94%
    22:00 +10°C° 2,1 mm 3 m/s 637 mmHg 97%
    23:00 +10°C° 2,3 mm 3 m/s 637 mmHg 97%
    Arată mai mult